Location: Condor
(52.3263°N, 114.5541°W)
Time: 22:12:03
(UTC+00:00)

Oscar 19 - Pass Details

Date: 12 December 2023
Orbit: 771 x 789 km, 98.9° (Epoch: 04 March)

Event Time Altitude Azimuth Distance (km) Brightness Sun altitude
Rises 13:10:49 0° 13° (NNE) 3,279 13.9 -21.2°
Reaches altitude 10° 13:13:10 10° 9° (N) 2,350 13.1 -20.9°
Maximum altitude 13:18:13 55° 293° (WNW) 941 10.7 -20.1°
Drops below altitude 10° 13:23:15 10° 216° (SW) 2,345 12.9 -19.4°
Sets 13:25:36 0° 212° (SSW) 3,271 13.7 -19.0°
